Location: Alafon
(8.4500°N, 4.2333°E)
Time: 23:16:31
(UTC+00:00)

Explorer 7 - Pass Details

Date: 25 July 2021
Orbit: 484 x 676 km, 50.3° (Epoch: 22 September)

Event Time Altitude Azimuth Distance (km) Brightness Sun altitude
Rises 16:34:01 0° 297° (WNW) 2,992 12.1 20.6°
Reaches altitude 10° 16:36:54 10° 281° (W) 2,094 12.0 19.9°
Maximum altitude 16:40:25 20° 234° (SW) 1,543 9.8 19.1°
Drops below altitude 10° 16:43:57 10° 188° (S) 2,098 9.7 18.2°
Sets 16:46:51 0° 171° (S) 3,000 10.3 17.5°
